[[{"header":{"parameterUnit":"m.s-1","parameterCategory":1,"la1":30.2991,"la2":30.254,"lo1":-89.0895,"lo2":-89.0444,"dy":0.0017,"dx":0.0017,"nx":28,"ny":28,"refTime":"2024-10-08T21:00:00:Z","depth":0,"parameterNumber":2,"parameterNumberName":"U-component_of_WINDS"},"data":[0,0,0,0,0,0,0,0,0,0,0,0,0,0,0,0,0,0,0,0,0,0,0,0,0,0,0,0,0,0,0,0,0,0,0,0,0,0,0,0,0,0,0,0,0,0,0,0,0,0,0,0,0,0,0,0,0,0,-1.551,-1.551,0,-1.5528,-1.5528,-1.5528,-1.547,-1.5468,-1.5466,-1.5465,-1.5482,-1.5485,-1.5487,0,0,0,0,0,0,0,0,0,0,0,0,0,-1.5424,-1.5426,-1.551,-1.551,-1.5511,-1.5528,-1.5528,-1.5529,-1.547,-1.5468,-1.5466,-1.5464,-1.5482,-1.5484,-1.5487,0,0,0,0,0,0,0,0,0,0,0,0,0,-1.5454,-1.5426,-1.551,-1.5484,-1.5481,-1.5528,-1.5528,-1.5529,-1.5471,-1.5468,-1.5465,-1.5463,-1.5481,-1.5484,-1.5487,-1.556,0,0,-1.5497,-1.5498,0,0,0,0,0,0,0,0,-1.5452,-1.5457,-1.5487,-1.5486,-1.5483,-1.5494,-1.5504,-1.5539,-1.5471,-1.5475,-1.5465,-1.5462,-1.5488,-1.5491,-1.55,-1.5561,-1.5562,-1.5497,-1.5499,-1.55,-1.5501,0,0,0,0,0,0,0,-1.545,-1.5456,-1.5517,-1.5488,-1.5485,-1.547,-1.5472,-1.5511,-1.5496,-1.5474,-1.547,-1.5473,-1.5487,-1.5497,-1.55,-1.5562,-1.5497,-1.55,-1.5502,-1.5503,-1.5683,-1.5686,0,0,0,0,0,0,-1.5452,-1.5454,-1.5517,-1.5518,-1.5461,-1.5474,-1.5475,-1.5493,-1.5496,-1.5493,-1.5475,-1.547,-1.5493,-1.5496,-1.55,-1.5587,-1.55,-1.5503,-1.5505,-1.568,-1.5684,-1.5687,0,0,0,0,0,0,-1.545,-1.5458,-1.5516,-1.5485,-1.5491,-1.5478,-1.5499,-1.5495,-1.5505,-1.5496,-1.5493,-1.5489,-1.5491,-1.5496,-1.5546,-1.5586,-1.5505,-1.5508,-1.5677,-1.5681,-1.5685,-1.5759,0,0,0,0,0,0,-1.5448,-1.5457,-1.5486,-1.5486,-1.5493,-1.5562,-1.5501,-1.5497,-1.5511,-1.5505,-1.5508,-1.5506,-1.5489,-1.5541,-1.5549,-1.5589,-1.551,-1.5673,-1.5679,-1.5684,-1.5753,-1.5765,-1.5776,0,0,0,0,0,-1.5445,-1.5505,-1.5487,-1.5495,-1.5528,-1.5564,-1.5568,-1.5548,-1.5514,-1.5542,-1.5536,-1.5506,-1.558,-1.5547,-1.5555,-1.5597,-1.5671,-1.5677,-1.5684,-1.5748,-1.5763,-1.5776,0,0,0,0,0,0,-1.551,-1.5505,-1.5485,-1.5548,-1.5557,-1.5554,-1.5589,-1.5564,-1.5583,-1.5576,-1.5549,-1.5551,-1.5605,-1.5605,-1.5569,-1.5667,-1.562,-1.5628,-1.5666,-1.568,-1.5691,-1.5691,-1.5513,0,0,0,0,0,-1.5532,-1.5562,-1.5556,-1.5612,-1.5617,-1.5602,-1.5617,-1.5601,-1.5609,-1.5613,-1.561,-1.5619,-1.5644,-1.5662,-1.5684,-1.5752,-1.5752,-1.5784,-1.5796,-1.5805,-1.5814,-1.585,-1.5864,-1.5708,-1.5708,-1.5708,0,0,-1.5577,-1.5578,-1.5599,-1.5625,-1.563,-1.5662,-1.5606,-1.5642,-1.5665,-1.5618,-1.5665,-1.5664,-1.5672,-1.5731,-1.5757,-1.5733,-1.5856,-1.5814,-1.5821,-1.5824,-1.5858,-1.5873,-1.5886,-1.5712,-1.5712,-1.5711,0,0,-1.5677,-1.568,-1.5727,-1.5733,-1.5742,-1.5731,-1.5742,-1.5743,-1.5741,-1.5787,-1.5753,-1.5779,-1.5823,-1.583,-1.584,-1.594,-1.5913,-1.5948,-1.6009,-1.6045,-1.6057,-1.6068,-1.6105,-1.6118,-1.5956,-1.5956,-1.5956,0,-1.5732,-1.5779,-1.5754,-1.5793,-1.5805,-1.5763,-1.5811,-1.5817,-1.5833,-1.5842,-1.5815,-1.5869,-1.5871,-1.5932,-1.5956,-1.5965,-1.5977,-1.5949,-1.6057,-1.6068,-1.6077,-1.6113,-1.6126,-1.596,-1.596,-1.5959,-1.5959,0,-1.5847,-1.588,-1.5917,-1.5933,-1.5949,-1.5992,-1.5974,-1.5993,-1.5974,-1.5966,-1.6014,-1.6015,-1.6038,-1.605,-1.6032,-1.6108,-1.6093,-1.6062,-1.6014,-1.6097,-1.613,-1.6143,-1.5967,-1.5965,-1.5964,-1.5963,0,0,-1.5991,-1.5992,-1.6006,-1.6013,-1.6018,-1.6043,-1.6083,-1.6105,-1.6122,-1.6133,-1.6167,-1.6204,-1.6175,-1.6186,-1.6168,-1.6199,-1.6279,-1.6163,-1.6163,-1.6187,-1.6364,-1.639,-1.6406,-1.626,-1.6263,-1.6265,-1.6364,0,-1.609,-1.616,-1.6138,-1.6209,-1.6239,-1.6198,-1.6233,-1.624,-1.6233,-1.6257,-1.6249,-1.6277,-1.6235,-1.6242,-1.627,-1.6264,-1.6315,-1.6256,-1.6292,-1.6294,-1.6294,-1.6422,-1.6449,-1.6543,-1.6377,-1.6379,-1.638,0,-1.6216,-1.6232,-1.6306,-1.6306,-1.6317,-1.6349,-1.6368,-1.6391,-1.6397,-1.639,-1.6401,-1.6377,-1.6416,-1.6365,-1.6419,-1.6379,-1.6392,-1.6391,-1.6394,-1.6399,-1.6344,-1.6432,-1.6573,-1.6588,-1.64,-1.6398,-1.6397,0,-1.6316,-1.6355,-1.6405,-1.6411,-1.6412,-1.6436,-1.6437,-1.644,-1.6455,-1.647,-1.6479,-1.6498,-1.651,-1.6525,-1.6506,-1.6471,-1.6563,-1.6511,-1.6559,-1.6559,-1.6582,-1.6581,-1.6729,-1.6587,-1.6587,-1.6586,-1.6586,0,-1.643,-1.6477,-1.645,-1.6481,-1.6532,-1.6505,-1.6556,-1.6553,-1.6556,-1.6585,-1.655,-1.6578,-1.655,-1.6575,-1.656,-1.6607,-1.6612,-1.6607,-1.6603,-1.6612,-1.6613,-1.6622,-1.6616,-1.659,-1.6589,-1.6589,-1.6588,0,-1.6551,-1.6535,-1.6586,-1.6582,-1.6582,-1.662,-1.6616,-1.6644,-1.6633,-1.6671,-1.6678,-1.6662,-1.6689,-1.6671,-1.6699,-1.6688,-1.6751,-1.6737,-1.675,-1.6746,-1.6796,-1.6792,-1.6956,-1.6977,-1.682,-1.6821,-1.6823,0,-1.6627,-1.6662,-1.6661,-1.6678,-1.6682,-1.6709,-1.6724,-1.6698,-1.6714,-1.6723,-1.675,-1.6775,-1.6793,-1.6839,-1.683,-1.6851,-1.6838,-1.6894,-1.6841,-1.6849,-1.6841,-1.684,-1.6844,-1.6906,-1.6908,-1.6909,-1.691,0,-1.6763,-1.6753,-1.6775,-1.6794,-1.6812,-1.6826,-1.6837,-1.6852,-1.6826,-1.6846,-1.6874,-1.6888,-1.6916,-1.6941,-1.6958,-1.6959,-1.6931,-1.6926,-1.6939,-1.6949,-1.6956,-1.6955,-1.6781,-1.6924,-1.6922,-1.6921,-1.692,-1.692,-1.6865,-1.6894,-1.6899,-1.6924,-1.6929,-1.694,-1.6966,-1.6959,-1.6981,-1.7003,-1.6985,-1.7019,-1.7023,-1.7043,-1.7047,-1.7073,-1.705,-1.7068,-1.7072,-1.7078,-1.7086,-1.695,-1.7075,-1.7075,-1.7074,-1.7074,-1.7074,0,-1.7001,-1.7001,-1.7025,-1.7041,-1.7061,-1.7031,-1.7041,-1.706,-1.709,-1.7096,-1.7115,-1.7147,-1.717,-1.7162,-1.7183,-1.7205,-1.7193,-1.7212,-1.7211,-1.7212,-1.7104,-1.7092,-1.7222,-1.7222,-1.7222,-1.7222,-1.7221,-1.7221,-1.7074,-1.7123,-1.7113,-1.7163,-1.7162,-1.7195,-1.7204,-1.7213,-1.7218,-1.7255,-1.7275,-1.7269,-1.7269,-1.729,-1.731,-1.7307,-1.7317,-1.7342,-1.7334,-1.7234,-1.722,-1.7206,-1.7194,-1.7343,-1.7344,-1.744,-1.7441,-1.7442]},{"header":{"parameterUnit":"m.s-1","parameterCategory":1,"la1":30.2991,"la2":30.254,"lo1":-89.0895,"lo2":-89.0444,"dy":0.0017,"dx":0.0017,"nx":28,"ny":28,"refTime":"2024-10-08T21:00:00:Z","depth":0,"parameterNumber":3,"parameterNumberName":"V-component_of_WINDS"},"data":[0,0,0,0,0,0,0,0,0,0,0,0,0,0,0,0,0,0,0,0,0,0,0,0,0,0,0,0,0,0,0,0,0,0,0,0,0,0,0,0,0,0,0,0,0,0,0,0,0,0,0,0,0,0,0,0,0,0,-5.1702,-5.1704,0,-5.1827,-5.1829,-5.183,-5.1785,-5.1782,-5.1779,-5.1777,-5.1901,-5.1906,-5.1912,0,0,0,0,0,0,0,0,0,0,0,0,0,-5.1422,-5.1428,-5.1702,-5.1704,-5.1706,-5.1827,-5.1829,-5.183,-5.1786,-5.1782,-5.1779,-5.1776,-5.1899,-5.1906,-5.1913,0,0,0,0,0,0,0,0,0,0,0,0,0,-5.1545,-5.1429,-5.1702,-5.1698,-5.1699,-5.1827,-5.1829,-5.1831,-5.1786,-5.1782,-5.1778,-5.1774,-5.1896,-5.1905,-5.1914,-5.2052,0,0,-5.1941,-5.1945,0,0,0,0,0,0,0,0,-5.1538,-5.1555,-5.1697,-5.1698,-5.17,-5.1786,-5.1775,-5.1905,-5.1787,-5.1753,-5.1777,-5.1772,-5.1866,-5.1877,-5.1909,-5.2058,-5.2063,-5.1941,-5.1947,-5.1951,-5.1953,0,0,0,0,0,0,0,-5.153,-5.155,-5.1752,-5.1699,-5.1701,-5.1689,-5.1701,-5.1799,-5.1831,-5.1756,-5.1753,-5.1768,-5.1866,-5.1901,-5.1912,-5.2065,-5.1941,-5.1949,-5.1955,-5.1958,-5.2334,-5.2338,0,0,0,0,0,0,-5.1521,-5.1543,-5.1748,-5.1755,-5.1607,-5.1697,-5.1711,-5.1763,-5.183,-5.1836,-5.1772,-5.1766,-5.1888,-5.1902,-5.1916,-5.2083,-5.1951,-5.1959,-5.1964,-5.2329,-5.2335,-5.234,0,0,0,0,0,0,-5.1515,-5.154,-5.1743,-5.1648,-5.1673,-5.1706,-5.1764,-5.1767,-5.1803,-5.1842,-5.1847,-5.1802,-5.1885,-5.1904,-5.2019,-5.2087,-5.1963,-5.1971,-5.2324,-5.2331,-5.2337,-5.2418,0,0,0,0,0,0,-5.1507,-5.1538,-5.1591,-5.165,-5.1679,-5.1845,-5.1768,-5.1773,-5.1818,-5.1812,-5.1872,-5.1878,-5.1883,-5.2006,-5.2028,-5.2097,-5.1978,-5.2318,-5.2327,-5.2335,-5.241,-5.2427,-5.2442,0,0,0,0,0,-5.1497,-5.1608,-5.1594,-5.1619,-5.1747,-5.1849,-5.1865,-5.187,-5.1824,-5.1878,-5.1903,-5.1876,-5.2076,-5.2018,-5.2042,-5.2115,-5.2313,-5.2324,-5.2335,-5.2403,-5.2424,-5.2442,0,0,0,0,0,0,-5.1555,-5.1616,-5.1601,-5.1734,-5.1787,-5.1841,-5.1909,-5.1892,-5.1958,-5.1949,-5.195,-5.1964,-5.2084,-5.211,-5.2045,-5.2253,-5.2188,-5.2204,-5.2231,-5.2252,-5.2268,-5.2259,-5.1985,0,0,0,0,0,-5.1584,-5.1663,-5.1711,-5.1824,-5.1851,-5.1876,-5.192,-5.192,-5.1974,-5.1995,-5.2029,-5.2082,-5.2156,-5.2205,-5.2276,-5.2413,-5.2426,-5.2475,-5.2491,-5.2504,-5.2518,-5.2594,-5.2617,-5.2375,-5.2374,-5.2374,0,0,-5.1643,-5.1685,-5.1735,-5.1836,-5.1877,-5.1958,-5.1895,-5.1983,-5.2043,-5.2008,-5.212,-5.2147,-5.2205,-5.2333,-5.239,-5.2359,-5.2588,-5.2518,-5.2528,-5.2535,-5.2607,-5.263,-5.265,-5.2382,-5.238,-5.2379,0,0,-5.1792,-5.1833,-5.1932,-5.1974,-5.2037,-5.2053,-5.2077,-5.2134,-5.2151,-5.2264,-5.224,-5.231,-5.2439,-5.2482,-5.2521,-5.2688,-5.2665,-5.2711,-5.2796,-5.2869,-5.2889,-5.2905,-5.2966,-5.2988,-5.2724,-5.2724,-5.2724,0,-5.1857,-5.198,-5.1984,-5.2076,-5.2121,-5.2095,-5.2195,-5.2235,-5.2318,-5.2349,-5.2313,-5.2475,-5.2512,-5.265,-5.2691,-5.2722,-5.275,-5.2704,-5.2886,-5.2903,-5.2918,-5.2976,-5.2999,-5.2729,-5.2729,-5.2728,-5.2728,0,-5.2058,-5.2143,-5.2215,-5.2298,-5.2351,-5.2446,-5.2464,-5.2517,-5.2512,-5.2532,-5.2647,-5.2691,-5.2771,-5.2803,-5.2798,-5.2941,-5.2919,-5.2884,-5.2819,-5.2947,-5.3001,-5.3023,-5.2737,-5.2735,-5.2733,-5.2732,0,0,-5.2247,-5.2332,-5.2358,-5.2396,-5.2464,-5.2529,-5.2623,-5.2703,-5.2749,-5.2806,-5.2885,-5.2995,-5.2964,-5.3008,-5.3007,-5.3072,-5.3203,-5.3029,-5.303,-5.3061,-5.3364,-5.339,-5.3416,-5.3188,-5.3192,-5.3196,-5.3359,0,-5.2403,-5.257,-5.2576,-5.2728,-5.2807,-5.2784,-5.2865,-5.2916,-5.2936,-5.3006,-5.3028,-5.3106,-5.3058,-5.3085,-5.3148,-5.3174,-5.3264,-5.3162,-5.3261,-5.3265,-5.3249,-5.3444,-5.3472,-5.3624,-5.338,-5.3384,-5.3386,0,-5.2607,-5.2674,-5.2834,-5.2892,-5.2925,-5.2999,-5.3073,-5.3139,-5.3196,-5.3206,-5.3256,-5.3247,-5.3342,-5.3273,-5.3405,-5.3335,-5.3376,-5.3395,-5.3401,-5.3411,-5.3334,-5.346,-5.3673,-5.3696,-5.342,-5.3417,-5.3415,0,-5.2731,-5.2859,-5.2972,-5.3005,-5.3075,-5.3128,-5.3159,-5.3211,-5.3259,-5.3323,-5.3354,-5.3428,-5.3469,-5.3526,-5.3537,-5.3485,-5.3669,-5.36,-5.368,-5.368,-5.372,-5.3718,-5.3944,-5.3745,-5.3745,-5.3744,-5.3744,0,-5.2905,-5.3004,-5.3029,-5.3099,-5.3209,-5.3215,-5.3324,-5.3351,-5.3398,-5.3472,-5.3455,-5.3524,-5.3534,-5.3605,-5.3614,-5.3722,-5.374,-5.3751,-5.3752,-5.3753,-5.3752,-5.3781,-5.3771,-5.375,-5.3749,-5.3748,-5.3747,0,-5.3061,-5.3082,-5.3204,-5.3261,-5.3278,-5.3357,-5.3405,-5.3471,-5.349,-5.3584,-5.3606,-5.3636,-5.372,-5.3736,-5.3834,-5.3839,-5.3969,-5.3959,-5.3951,-5.395,-5.4029,-5.4022,-5.4282,-5.4317,-5.4095,-5.4097,-5.4098,0,-5.3172,-5.3248,-5.3314,-5.3363,-5.3397,-5.3476,-5.3526,-5.3535,-5.3586,-5.3657,-5.3715,-5.3797,-5.3863,-5.3998,-5.4027,-5.4103,-5.4095,-5.4181,-5.4106,-5.4105,-5.4098,-5.4093,-5.4101,-5.4195,-5.4198,-5.42,-5.4201,0,-5.3365,-5.3372,-5.3445,-5.3522,-5.3582,-5.3642,-5.3699,-5.374,-5.3757,-5.3816,-5.3902,-5.3954,-5.4055,-5.4137,-5.4212,-5.4243,-5.4226,-5.4225,-5.4247,-5.425,-5.4242,-5.4249,-5.3991,-5.4219,-5.4217,-5.4216,-5.4215,-5.4214,-5.3503,-5.357,-5.3628,-5.3709,-5.3754,-5.3808,-5.3874,-5.3902,-5.3974,-5.4059,-5.4059,-5.4154,-5.4208,-5.4308,-5.4344,-5.4417,-5.439,-5.4422,-5.4431,-5.4439,-5.4447,-5.423,-5.4431,-5.443,-5.443,-5.4429,-5.4429,0,-5.3697,-5.3733,-5.3808,-5.389,-5.3954,-5.3933,-5.3996,-5.4051,-5.4135,-5.4188,-5.4254,-5.4354,-5.4433,-5.447,-5.4548,-5.46,-5.4594,-5.462,-5.4617,-5.4625,-5.4466,-5.444,-5.4624,-5.4624,-5.4624,-5.4624,-5.4624,-5.4624,-5.3805,-5.3918,-5.3932,-5.4067,-5.4102,-5.4196,-5.4233,-5.4283,-5.4326,-5.4439,-5.4505,-5.4529,-5.4576,-5.4657,-5.4729,-5.4738,-5.4768,-5.4799,-5.4804,-5.4655,-5.4635,-5.4617,-5.4592,-5.4805,-5.4805,-5.4956,-5.4957,-5.4958]}]]